Weather History for KARV - December, 2012

Change the Weather History Date:

Monday, December 31, 2012

  Actual Average Record
Temperature  
Mean Temperature 12 °F -  
Max Temperature 23 °F 20 °F 44 °F (1965)
Min Temperature 1 °F 0 °F -36 °F (1967)
Degree Days  
Heating Degree Days 53    
Moisture  
Dew Point 8 °F    
Average Humidity 75    
Maximum Humidity 86    
Minimum Humidity 62    
Precipitation  
Precipitation 0.00 in - - ()
Sea Level Pressure  
Sea Level Pressure 29.96 in    
Wind  
Wind Speed 8 mph (NW)    
Max Wind Speed 16 mph    
Max Gust Speed 22 mph    
Visibility 9 miles    
Events Snow    
Averages and records for this station are not official NWS values.
T = Trace of Precipitation, MM = Missing Value Source: NWS Daily Summary

Daily Weather History Graph

Daily Weather History Graph

Search for Another Location

Airport or City:

Trip Planner

Search our weather history database for the weather conditions in past years. The results will help you decide how hot, cold, wet, or windy it might be!

Date:

Astronomy

Dec. 31, 2012 Rise Set
Actual Time 7:40 AM CST 4:24 PM CST
Civil Twilight 7:06 AM CST 4:58 PM CST
Nautical Twilight 6:28 AM CST 5:36 PM CST
Astronomical Twilight 5:52 AM CST 6:12 PM CST
Moon 8:06 PM CST (12/31) 9:11 AM CST (12/31)
Length of Visible Light 9h 52m
Length of Day
8h 43m
Waning Gibbous, 90% of the Moon is Illuminated
Dec 31
Waning Gibbous
Jan 4
Last Quarter
Jan 11
New
Jan 18
First Quarter
Jan 26
Full

Hourly Weather History & Observations

Time (CST) Temp. Windchill Dew Point Humidity Pressure Visibility Wind Dir Wind Speed Gust Speed Precip Events Conditions
12:15 AM 21.2 °F 13.6 °F 14.0 °F 74% 29.79 in 10.0 mi SSW 5.8 mph - N/A   Overcast
12:35 AM 21.2 °F 12.6 °F 14.0 °F 74% 29.79 in 10.0 mi SW 6.9 mph - N/A   Mostly Cloudy
12:55 AM 21.2 °F 13.6 °F 14.0 °F 74% 29.79 in 10.0 mi SW 5.8 mph - N/A   Overcast
1:15 AM 21.2 °F 14.9 °F 17.6 °F 86% 29.79 in 10.0 mi WSW 4.6 mph - N/A   Overcast
1:35 AM 23.0 °F 15.8 °F 17.6 °F 80% 29.80 in 10.0 mi West 5.8 mph - N/A   Overcast
1:55 AM 23.0 °F 13.9 °F 17.6 °F 80% 29.80 in 10.0 mi WNW 8.1 mph 18.4 mph N/A   Overcast
2:15 AM 23.0 °F 13.1 °F 17.6 °F 80% 29.80 in 10.0 mi WNW 9.2 mph - N/A   Overcast
2:35 AM 23.0 °F 12.4 °F 17.6 °F 80% 29.81 in 10.0 mi WNW 10.4 mph 19.6 mph N/A   Overcast
2:55 AM 19.4 °F 10.4 °F 14.0 °F 80% 29.82 in 10.0 mi WNW 6.9 mph - N/A   Scattered Clouds
3:15 AM 19.4 °F 9.5 °F 14.0 °F 80% 29.82 in 10.0 mi WNW 8.1 mph - N/A   Mostly Cloudy
3:35 AM 19.4 °F 9.5 °F 14.0 °F 80% 29.83 in 10.0 mi WNW 8.1 mph - N/A   Overcast
3:55 AM 19.4 °F 10.4 °F 15.8 °F 86% 29.84 in 10.0 mi NW 6.9 mph - N/A   Overcast
4:15 AM 19.4 °F 7.9 °F 15.8 °F 86% 29.85 in 10.0 mi NW 10.4 mph - N/A   Overcast
4:35 AM 19.4 °F 7.2 °F 14.0 °F 80% 29.86 in 10.0 mi WNW 11.5 mph 17.3 mph N/A   Overcast
4:55 AM 19.4 °F 6.0 °F 14.0 °F 80% 29.86 in 10.0 mi WNW 13.8 mph 18.4 mph N/A   Overcast
5:15 AM 19.4 °F 10.4 °F 14.0 °F 80% 29.86 in 7.0 mi NW 6.9 mph - N/A   Overcast
5:35 AM 19.4 °F 7.9 °F 14.0 °F 80% 29.87 in 7.0 mi NW 10.4 mph - N/A Snow Light Snow
5:55 AM 19.4 °F 6.6 °F 14.0 °F 80% 29.88 in 5.0 mi NW 12.7 mph 17.3 mph N/A Snow Light Snow
6:15 AM 19.4 °F 7.2 °F 14.0 °F 80% 29.88 in 7.0 mi WNW 11.5 mph 17.3 mph N/A Snow Light Snow
6:35 AM 19.4 °F 10.4 °F 12.2 °F 74% 29.89 in 4.0 mi NW 6.9 mph - N/A Snow Light Snow
6:55 AM 17.6 °F 5.0 °F 12.2 °F 79% 29.91 in 5.0 mi NW 11.5 mph 18.4 mph N/A Snow Light Snow
7:15 AM 17.6 °F 4.3 °F 10.4 °F 73% 29.93 in 10.0 mi NW 12.7 mph 18.4 mph N/A Snow Light Snow
7:35 AM 17.6 °F 5.7 °F 10.4 °F 73% 29.94 in 10.0 mi NW 10.4 mph 18.4 mph N/A Snow Light Snow
7:55 AM 17.6 °F 5.0 °F 10.4 °F 73% 29.94 in 7.0 mi NNW 11.5 mph - N/A Snow Light Snow
8:15 AM 17.6 °F 5.7 °F 10.4 °F 73% 29.95 in 10.0 mi NNW 10.4 mph - N/A   Overcast
8:35 AM 14.0 °F -0.2 °F 6.8 °F 73% 29.94 in 10.0 mi NNW 12.7 mph 19.6 mph N/A   Overcast
8:55 AM 14.0 °F 2.9 °F 8.6 °F 79% 29.96 in 7.0 mi NNW 8.1 mph 17.3 mph N/A Snow Light Snow
9:15 AM 14.0 °F 0.5 °F 8.6 °F 79% 29.96 in 4.0 mi NW 11.5 mph 18.4 mph N/A Snow Light Snow
9:35 AM 14.0 °F 2.0 °F 8.6 °F 79% 29.97 in 5.0 mi NW 9.2 mph - N/A Snow Light Snow
9:55 AM 14.0 °F 2.9 °F 8.6 °F 79% 29.97 in 5.0 mi NW 8.1 mph - N/A Snow Light Snow
10:15 AM 14.0 °F 1.2 °F 8.6 °F 79% 29.97 in 5.0 mi NW 10.4 mph - N/A Snow Light Snow
10:35 AM 14.0 °F 2.9 °F 6.8 °F 73% 29.97 in 7.0 mi NNW 8.1 mph 18.4 mph N/A   Overcast
10:55 AM 14.0 °F 2.0 °F 6.8 °F 73% 29.98 in 7.0 mi NW 9.2 mph 17.3 mph N/A   Overcast
11:15 AM 14.0 °F 0.5 °F 6.8 °F 73% 29.98 in 5.0 mi NNW 11.5 mph 16.1 mph N/A Snow Light Snow
11:35 AM 14.0 °F -2.0 °F 5.0 °F 67% 29.98 in 7.0 mi NNW 16.1 mph 21.9 mph N/A Snow Light Snow
11:55 AM 14.0 °F 0.5 °F 5.0 °F 67% 29.98 in 7.0 mi NW 11.5 mph - N/A   Overcast
12:15 PM 14.0 °F -1.4 °F 5.0 °F 67% 29.98 in 7.0 mi North 15.0 mph 18.4 mph N/A Snow Light Snow
12:35 PM 14.0 °F -1.4 °F 5.0 °F 67% 29.96 in 10.0 mi North 15.0 mph 18.4 mph N/A   Overcast
12:55 PM 14.0 °F -0.8 °F 5.0 °F 67% 29.96 in 10.0 mi North 13.8 mph 19.6 mph N/A   Overcast
1:15 PM 14.0 °F -0.2 °F 3.2 °F 62% 29.96 in 10.0 mi NNW 12.7 mph 17.3 mph N/A   Mostly Cloudy
1:35 PM 14.0 °F 0.5 °F 5.0 °F 67% 29.98 in 10.0 mi NW 11.5 mph - N/A   Overcast
1:55 PM 14.0 °F 1.2 °F 3.2 °F 62% 29.98 in 10.0 mi NW 10.4 mph 18.4 mph N/A   Overcast
2:15 PM 14.0 °F 0.5 °F 3.2 °F 62% 29.99 in 10.0 mi NW 11.5 mph 16.1 mph N/A   Overcast
2:35 PM 14.0 °F 2.0 °F 5.0 °F 67% 30.00 in 7.0 mi NNW 9.2 mph - N/A   Overcast
2:55 PM 14.0 °F 2.9 °F 5.0 °F 67% 30.01 in 10.0 mi NW 8.1 mph 16.1 mph N/A   Overcast
3:15 PM 12.2 °F -0.2 °F 3.2 °F 67% 30.02 in 7.0 mi NNW 9.2 mph - N/A   Overcast
3:35 PM 12.2 °F -0.2 °F 3.2 °F 67% 30.02 in 10.0 mi North 9.2 mph - N/A   Overcast
3:55 PM 12.2 °F -0.2 °F 3.2 °F 67% 30.03 in 4.0 mi NNW 9.2 mph - N/A Snow Light Snow
4:15 PM 12.2 °F 0.7 °F 3.2 °F 67% 30.04 in 10.0 mi NNW 8.1 mph - N/A   Overcast
4:35 PM 12.2 °F -0.2 °F 3.2 °F 67% 30.04 in 10.0 mi NNW 9.2 mph - N/A   Overcast
4:55 PM 12.2 °F 0.7 °F 3.2 °F 67% 30.04 in 10.0 mi NNW 8.1 mph - N/A   Overcast
5:15 PM 12.2 °F 2.9 °F 3.2 °F 67% 30.05 in 10.0 mi NW 5.8 mph - N/A   Overcast
5:35 PM 12.2 °F 0.7 °F 3.2 °F 67% 30.05 in 10.0 mi NNW 8.1 mph - N/A   Overcast
5:55 PM 12.2 °F 1.7 °F 5.0 °F 73% 30.06 in 10.0 mi NNW 6.9 mph - N/A   Overcast
6:15 PM 12.2 °F 0.7 °F 3.2 °F 67% 30.06 in 10.0 mi NNW 8.1 mph - N/A   Overcast
6:35 PM 12.2 °F 0.7 °F 5.0 °F 73% 30.06 in 10.0 mi NNW 8.1 mph - N/A   Overcast
6:55 PM 12.2 °F 1.7 °F 5.0 °F 73% 30.06 in 10.0 mi NNW 6.9 mph - N/A   Overcast
7:35 PM 10.4 °F 2.2 °F 3.2 °F 73% 30.06 in 10.0 mi NW 4.6 mph - N/A   Clear
7:55 PM 8.6 °F 2.0 °F 1.4 °F 73% 30.06 in 10.0 mi WNW 3.5 mph - N/A   Clear
8:35 PM 5.0 °F - -0.4 °F 78% 30.06 in 10.0 mi Calm Calm - N/A   Clear
9:15 PM 3.2 °F - -0.4 °F 85% 30.06 in 10.0 mi Calm Calm - N/A   Clear
9:35 PM 1.4 °F - -2.2 °F 85% 30.06 in 10.0 mi Calm Calm - N/A   Clear
9:55 PM 3.2 °F -4.2 °F -2.2 °F 78% 30.06 in 10.0 mi NW 3.5 mph - N/A Snow Light Snow
10:15 PM 5.0 °F - -0.4 °F 78% 30.07 in 7.0 mi Calm Calm - N/A Snow Light Snow
10:35 PM 5.0 °F - 1.4 °F 85% 30.07 in 10.0 mi Calm Calm - N/A   Overcast
10:55 PM 5.0 °F - -0.4 °F 78% 30.06 in 10.0 mi Calm Calm - N/A Snow Light Snow
11:15 PM 5.0 °F - -0.4 °F 78% 30.07 in 10.0 mi Calm Calm - N/A   Clear
11:35 PM 5.0 °F - 1.4 °F 85% 30.07 in 10.0 mi Calm Calm - N/A Snow Light Snow
11:55 PM 3.2 °F - -0.4 °F 85% 30.07 in 10.0 mi Calm Calm - N/A Snow Light Snow